This is the latest recevied weather packets stored in our database for station/object DB0LHR-6. If no packets are shown the sender has not sent any weather packets the latest 10 day(s).
| Time | Temp. | Humidity | Pressure | Rain* | Wind** | Luminosity | Snow |
|---|---|---|---|---|---|---|---|
| 1778348116 | 20.56° C | 43% | 1013 hPa | 0 mm | - | - | - |
| 1778347216 | 20.56° C | 42% | 1013 hPa | 0 mm | - | - | - |
| 1778346316 | 21.11° C | 40% | 1013 hPa | 0 mm | - | - | - |
| 1778345416 | 21.11° C | 36% | 1013 hPa | 0 mm | - | - | - |
| 1778344516 | 21.67° C | 34% | 1013 hPa | 0 mm | - | - | - |
| 1778343616 | 21.67° C | 33% | 1013 hPa | 0 mm | - | - | - |
| 1778342716 | 22.22° C | 32% | 1013 hPa | 0 mm | - | - | - |
| 1778341816 | 22.22° C | 31% | 1013 hPa | 0 mm | - | - | - |
| 1778340916 | 22.78° C | 28% | 1013 hPa | 0 mm | - | - | - |
| 1778340016 | 23.33° C | 30% | 1013 hPa | 0 mm | - | - | - |
| 1778339116 | 24.44° C | 30% | 1014 hPa | 0 mm | - | - | - |
| 1778338216 | 25° C | 30% | 1014 hPa | 0 mm | - | - | - |
| 1778337316 | 25° C | 31% | 1014 hPa | 0 mm | - | - | - |
| 1778336416 | 24.44° C | 30% | 1014 hPa | 0 mm | - | - | - |
| 1778335516 | 25° C | 30% | 1014 hPa | 0 mm | - | - | - |
| 1778334616 | 25° C | 31% | 1014 hPa | 0 mm | - | - | - |
| 1778333716 | 25° C | 31% | 1015 hPa | 0 mm | - | - | - |
| 1778332816 | 25° C | 30% | 1015 hPa | 0 mm | - | - | - |
| 1778331916 | 25.56° C | 32% | 1015 hPa | 0 mm | - | - | - |
| 1778331016 | 25° C | 31% | 1015 hPa | 0 mm | - | - | - |
| 1778330116 | 24.44° C | 33% | 1015 hPa | 0 mm | - | - | - |
| 1778329216 | 23.89° C | 34% | 1015 hPa | 0 mm | - | - | - |
| 1778328316 | 23.89° C | 31% | 1016 hPa | 0 mm | - | - | - |
| 1778327416 | 23.89° C | 32% | 1016 hPa | 0 mm | - | - | - |
| 1778326516 | 23.89° C | 36% | 1016 hPa | 0 mm | - | - | - |
* Rain latest 24 hours (hover to see other rain measurements)
** Current wind speed in m/s (hover to see current wind gust speed)